Погода в Казачьем Мысе

Россия / Новосибирская область     55°30′35″N   75°52′35″E
темп.,
°C
ветер,
м/с
пор.,
м/с
влажн.,
%
обл.,
%
осадки,
мм/ч
давл.,
гПа
погр.,
м
14 мая, пт
пт1401:00+9с412815 0.0 1021328
04:00+8с4109223 0.0 1022237
07:00+8с388937 0.0 1024250
10:00+12с456897 0.0 1025717
13:00+15с453292 0.0 10261041
16:00+18ссз4524100 0.0 10251321
19:00+19зсз452556 0.0 10251257
22:00+14зюз22395 0.0 102512
15 мая, сб
сб1501:00+12зюз464619 0.0 102478
04:00+12юз4115285 0.0 1023163
07:00+12юз41259100 0.0 1022235
10:00+18юз5948100 0.1 1021332
13:00+25з89365 0.1 10191004
16:00+29зсз7102747 0.0 10172905
19:00+28зсз68315 0.0 10162684
22:00+17св3873100 0.3 1017172
16 мая, вс
вс1601:00+16юз377439 0.3 1016108
04:00+16зюз4136213 0.1 1015279
07:00+15юз47683 0.1 1014143
10:00+22з6114958 0.1 1013528
13:00+27зсз8143397 0.1 10122433
16:00+27сз91234100 0.0 10122366
19:00+21сз121670100 1.8 10121246
22:00+18ссз510710 1.6 1015276
17 мая, пн
пн1701:00+15с6118823 1.6 1016432
04:00+12ссв389315 0.0 1018235
07:00+12юв01905 0.0 101947
10:00+17зюз22645 0.0 1019581
13:00+22юз344540 0.0 10181049
16:00+27зюз69365 0.0 10151791
19:00+28з511345 0.0 10133120
22:00+22зюз48465 0.0 1011113
18 мая, вт
вт1801:00+20з5144773 0.0 1011256
04:00+17ююв337144 0.4 101037
07:00+16сз377328 0.4 1011165
10:00+21сз58545 0.0 1011698
13:00+25сз5103748 0.0 10101795
16:00+26сз61134100 0.0 10093185
19:00+18сз111466100 0.1 1009709
22:00+15зсз23831 1.3 100858